EW6480 Weather Reports


time (UTC)temp
F
wind
direction
speed
knots
gust
knots
rain 1hr
in
rain 24hr
in
rain mn
in
humidity
%
barometer
mb
20260505041515 57 169 1.7 5.2 0.00 0.00 0.00 64 1011.0
20260505040012 57 263 1.7 5.2 0.00 0.00 0.00 62 1011.0
20260505034511 58 281 1.7 6.1 0.00 0.00 0.00 61 1010.8
20260505033010 58 153 1.7 9.6 0.00 0.00 0.00 60 1010.9
20260505031512 58 236 0.9 7.0 0.00 0.00 0.00 58 1010.8
20260505030009 59 294 2.6 7.0 0.00 0.00 0.00 57 1010.8
20260505024510 59 198 2.6 7.8 0.00 0.00 0.00 56 1010.9
20260505023008 60 265 1.7 8.7 0.00 0.00 0.00 54 1011.0
20260505021507 60 227 0.9 7.0 0.00 0.00 0.00 53 1010.9
20260505020011 61 195 1.7 9.6 0.00 0.00 0.00 51 1010.9
20260505014506 61 215 2.6 7.8 0.00 0.00 0.00 50 1010.8
20260505013005 61 200 1.7 7.8 0.00 0.00 0.00 49 1010.6
20260505011505 62 240 0.9 5.2 0.00 0.00 0.00 48 1010.4
20260505010012 63 238 0.9 9.6 0.00 0.00 0.00 47 1010.2
20260505004504 63 197 2.6 6.1 0.00 0.00 0.00 46 1009.9
20260505003003 64 225 1.7 6.1 0.00 0.00 0.00 46 1009.4
20260505001503 64 184 0.0 8.7 0.00 0.00 0.00 45 1008.9
20260505000002 65 274 3.5 8.7 0.00 0.00 0.00 44 1008.6
20260504234502 66 215 3.5 9.6 0.00 0.00 0.00 43 1008.4
20260504233002 67 204 2.6 12.2 0.00 0.00 0.00 42 1008.3
20260504231603 68 240 2.6 14.8 0.00 0.00 0.00 40 1007.9
20260504230100 69 164 2.6 14.8 0.00 0.00 0.00 38 1007.5
20260504224559 70 243 3.5 11.3 0.00 0.00 0.00 36 1007.2
20260504223058 70 216 4.3 9.6 0.00 0.00 0.00 35 1007.0
20260504221558 72 250 4.3 13.0 0.00 0.00 0.00 30 1006.9
20260504220056 72 300 2.6 10.4 0.00 0.00 0.00 30 1006.9
20260504214605 73 233 5.2 10.4 0.00 0.00 0.00 29 1007.0
20260504213055 74 241 2.6 9.6 0.00 0.00 0.00 28 1006.9
20260504211553 74 210 5.2 12.2 0.00 0.00 0.00 28 1006.8
20260504210058 73 288 4.3 12.2 0.00 0.00 0.00 28 1006.9
20260504204554 73 207 4.3 9.6 0.00 0.00 0.00 28 1006.8
20260504203056 72 202 7.8 14.8 0.00 0.00 0.00 28 1006.9
20260504201549 72 293 6.1 11.3 0.00 0.00 0.00 27 1007.0
20260504200048 73 245 3.5 10.4 0.00 0.00 0.00 27 1007.1
20260504194550 72 271 4.3 10.4 0.00 0.00 0.00 27 1007.2
20260504193044 72 219 5.2 11.3 0.00 0.00 0.00 27 1007.1
20260504191551 72 180 4.3 11.3 0.00 0.00 0.00 27 1007.2
20260504190041 71 288 5.2 16.5 0.00 0.00 0.00 27 1007.5
20260504184539 71 275 6.1 14.8 0.00 0.00 0.00 26 1007.6
20260504183038 71 208 7.0 15.6 0.00 0.00 0.00 27 1007.5
20260504181535 71 168 4.3 14.8 0.00 0.00 0.00 28 1007.5
20260504180033 70 192 4.3 13.0 0.00 0.00 0.00 29 1007.9
20260504174530 69 310 5.2 18.2 0.00 0.00 0.00 29 1008.0
20260504173028 69 259 6.1 17.4 0.00 0.00 0.00 29 1008.2
20260504171539 69 165 7.0 15.6 0.00 0.00 0.00 30 1008.2
20260504100104 46 236 0.0 0.9 0.00 0.00 0.00 63 1011.2
20260504090108 46 225 0.0 1.7 0.00 0.00 0.00 61 1011.1
20260504081553 46 200 0.0 0.9 0.00 0.00 0.00 61 1011.0